DMSP 5D-2 F13 DEB, 42322

Orbit data source: Space-Track

DMSP 5D-2 F13 DEB, 42322 is space debris in SSO originally from a launch on Fri, 24 Mar 1995 UTC launched from the Air Force Western Test Range (AFWTR). Debris objects in space refer to the collection of defunct objects orbiting the Earth. Examples of debris include non-operational satellites, rocket bodies, and fragments generated from explosions, collisions, or faulty payload assembly.

Loading next visibility...
Identifier
42322, 1995-015JQ
Orbit
SSO
Country
Flag of USUS
Related business
Manufacturer
Unknown
Mission
Spacecraft
Bus & Motor
Unknown
Mass
Unknown
Launch date (UTC)
1995-03-24 (31 years ago)
Launch vehicle
Unknown
Launch site
Air Force Western Test Range (AFWTR)
Object type
Payload
Rocket body
Debris
Shape & HBR
Unknown shape, 0.1 m
Radar Cross Section
Small (<0.1 m²)

Expand to show TLE details & history
Last TLE update: 1 month ago

TLE from 1 month ago
0 DMSP 5D-2 F13 DEB
1 42322U 95015JQ  25319.40592079  .00030673  00000-0  53879-2 0  9992
2 42322  98.7665   8.0410 0024853 291.8547  68.0012 14.67387014551332
Epoch: 2025-11-15T09:44Z
TLE epoch observation values (Epoch: 2025-11-15T09:44:31.556Z)
Latitude
-0.00004°
Longitude
167.174°
Altitude
665.874 km
Speed
7.528 km/s
True Right ascension
00h 32m 09s
True Declination
0° 00' 00"
Sunlit
Object was in full shadow at epoch
Visualization orbit readout
Latitude
Unknown
Longitude
Unknown
Altitude
Unknown
Speed
Unknown
Apparent Right ascension
Unknown
Apparent Declination
Unknown
Sunlit
N/A
Visualization observer readout
Local Sidereal Time
07:33:25
Azimuth
Unknown
Elevation
Unknown
Doppler factor
Unknown
Orbital elements
Apogee altitude
684.029 km
Perigee altitude
649.012 km
Semi-major axis
7,044.657 km
Eccentricity
0.00249
Inclination
98.7665°
RAAN
8.041°
Arg. of periapsis
291.8547°
True anomaly
68.26557°
Mean anomaly
68.0012°
Eccentric anomaly
68.13335°
Mean motion
3.67074 °/min
Orbital period
98.07 mins
BSTAR
0.0053879

Documentation

Showing up to 5 results
|